Miscellaneous Local Product
Issued by NWS Hastings, NE

Home | Current Version | Previous Version | Text Only | Print | Product List | Glossary Off
Versions: 1 2 3 4 5 6 7 8 9 10 11 12 13 14 15 16 17 18 19 20 21 22 23 24 25 26 27 28 29 30 31 32 33 34 35 36 37 38 39 40 41 42 43 44 45 46 47 48 49 50

000
AXUS43 KGID 180302
MISGRI

GID CWA HOURLY WEATHER ROUNDUP
NATIONAL WEATHER SERVICE HASTINGS NE
1000 PM CDT THU APR 17 2014

NOTE: "FAIR" INDICATES FEW OR NO CLOUDS BELOW 12,000 FEET WITH NO
SIGNIFICANT WEATHER AND/OR OBSTRUCTIONS TO VISIBILITY.

...SOUTH CENTRAL NEBRASKA...

CITY           SKY/WX    TMP DP  RH WIND       PRES   REMARKS
GRAND ISLAND   CLEAR     45  28  51 SE8       30.22R
HASTINGS       CLEAR     47  27  45 SE7       30.21R
KEARNEY        FAIR      43  28  56 SE8       30.20S
ORD            CLEAR     45  26  47 SE9       30.18R
YORK           CLEAR     43  27  52 SE8       30.24R
AURORA         CLEAR     43  26  51 SE6       30.22R
LEXINGTON      CLEAR     46  34  63 SE7       30.17R
HOLDREGE       CLEAR     41  30  64 SE9       30.19R
HEBRON         CLEAR     40  27  59 S6        30.25R

...NEBRASKA PANHANDLE...

CITY           SKY/WX    TMP DP  RH WIND       PRES   REMARKS
CHADRON        PTCLDY    49  37  63 SE15      29.96S
ALLIANCE       MOCLDY    46  36  68 SE15      30.00R
SCOTTSBLUFF    CLEAR     50  37  61 SE17      29.97R
SIDNEY         CLEAR     49  34  56 S15       30.02R

...WESTERN AND NORTH CENTRAL NEBRASKA...

CITY           SKY/WX    TMP DP  RH WIND       PRES   REMARKS
VALENTINE      PTCLDY    45  25  45 SE14      30.10R
AINSWORTH      CLEAR     42  27  53 SE12      30.11F
ONEILL         CLEAR     43  22  43 SE7       30.19R
BROKEN BOW     CLEAR     41  29  62 SE8       30.16R
IMPERIAL         N/A     48  36  63 S17       30.10R
NORTH PLATTE   CLEAR     45  31  58 SE13      30.12R
MCCOOK         CLEAR     47  33  58 S12       30.16R

...EASTERN NEBRASKA...

CITY           SKY/WX    TMP DP  RH WIND       PRES   REMARKS
NORFOLK        PTCLDY    40  24  53 SE7       30.22S
SO SIOUX CITY  MOCLDY    46  24  42 E5        30.26R
TEKAMAH        MOCLDY    43  29  57 CALM      30.26R
COLUMBUS       CLEAR     39  21  48 E6        30.24S WCI  35
ALBION         CLEAR     38  24  57 SE5       30.21S WCI  35
OMAHA EPPLEY   PTCLDY    48  25  40 E3        30.27R
OFFUTT AFB     PTCLDY    38  29  69 CALM      30.26R
MILLARD        PTCLDY    45  26  45 CALM      30.26R
LINCOLN        PTCLDY    46  24  42 SE3       30.27R
NEBRASKA CITY  CLEAR     48  27  43 S3        30.27R
BEATRICE       PTCLDY    45  27  49 SE3       30.25S
FALLS CITY     CLEAR     47  27  45 CALM      30.26S

...NORTHERN KANSAS...

CITY           SKY/WX    TMP DP  RH WIND       PRES   REMARKS
GOODLAND       CLEAR     43  37  79 S16       30.14R
HILL CITY      CLEAR     48  30  49 S10       30.20R
PHILLIPSBURG   CLEAR     46  30  53 E8        30.21R
SMITH CENTER   CLEAR     41  27  56 SE9       30.23R
BELOIT         CLEAR     45  28  53 CALM      30.24R
HAYS           CLEAR     43  28  56 S9        30.23R
RUSSELL        CLEAR     41  29  62 SE10      30.22R
CONCORDIA      CLEAR     42  28  57 S7        30.24R
SALINA         CLEAR     44  29  55 S8        30.26R
TOPEKA         CLEAR     44  33  65 S3        30.29R



USA.gov is the U.S. government's official web portal to all federal, state and local government web resources and services.